Volver al catálogo

CZ-4B DEB

ActivoLEO
NORAD 40532·DEBRIS·🇨🇳 China

Lanzado Oct 25, 2013 desde Jiuquan Satellite Launch Center

Loading…

Próximos Pases (próximas 24 horas)

TLE

ActualizadoSource: Space-Track

Época: Sep 14, 2026, 19:34 UTC

1 40532U 13057E   26257.81593688  .00004136  00000-0  73661-3 0  9990
2 40532  74.8691  33.6808 0181121 115.4464 246.5570 14.57114234604548

Sigue CZ-4B DEB en tiempo real con AllMySat

Download on the App Store